Burlington, WA
on Saturday, December 29, 2012

Saturday
Previous Day Next Day
Daily Summary
 ActualAverage (KBLI)Record (KBLI)
Temperature
Mean Temperature °F 38°F  
Max Temperature 39°F 44°F 59°F (1952)
Min Temperature 37°F 32°F 0°F (1968)
Degree Days
Heating Degree Days 27 27  
Month to date heating degree days 773  
Cooling Degree Days 0 0  
Month to date cooling degree days 0  
Year to date cooling degree days 42  
Moisture
Dew Point 39°F   
Average Humidity 100    
Maximum Humidity 100    
Minimum Humidity 100    
Precipitation
Precipitation 0.14 in 0.11 in 1.14 in (1995)
Month to date precipitation 3.98  
Year to date precipitation 35.59  
Wind
Wind Speed 2 mph   
Max Wind Speed 7 mph   
Max Gust Speed mph   
Visibility 6 miles   
Events     

Key: T is trace of precipitation, MM is missing value
Source: NWS Daily Summary
Time(PST)TemperatureDew PointHumidity Pressure Visibility Wind DirectionWind SpeedGust SpeedPrecipitationEvents Conditions
12:15 AM 39.2°F 39.2°F 100% 30.17 in 9.0 miles NNE 4.6 mph - 0.00 in   Overcast
12:35 AM 37.4°F 37.4°F 100% 30.17 in 10.0 miles NE 3.5 mph - 0.00 in   Overcast
12:55 AM 37.4°F 37.4°F 100% 30.17 in 10.0 miles Calm Calm - 0.00 in   Overcast
1:15 AM 39.2°F 39.2°F 100% 30.18 in 10.0 miles NNW 3.5 mph - 0.00 in   Overcast
1:35 AM 39.2°F 39.2°F 100% 30.18 in 9.0 miles Calm Calm - 0.00 in   Overcast
1:55 AM 39.2°F 39.2°F 100% 30.18 in 7.0 miles Calm Calm - 0.00 in   Overcast
2:15 AM 39.2°F 39.2°F 100% 30.18 in 7.0 miles Calm Calm - 0.00 in   Overcast
2:35 AM 39.2°F 39.2°F 100% 30.19 in 7.0 miles Calm Calm - 0.00 in   Overcast
2:55 AM 39.2°F 39.2°F 100% 30.19 in 8.0 miles NE 5.8 mph - 0.00 in   Overcast
3:15 AM 39.2°F 39.2°F 100% 30.19 in 8.0 miles Calm Calm - 0.00 in   Overcast
3:35 AM 39.2°F 39.2°F 100% 30.19 in 8.0 miles ENE 3.5 mph - 0.00 in   Overcast
3:55 AM 39.2°F 39.2°F 100% 30.19 in 7.0 miles Calm Calm - 0.00 in   Overcast
4:15 AM 39.2°F 39.2°F 100% 30.18 in 7.0 miles Calm Calm - 0.00 in   Overcast
4:35 AM 39.2°F 39.2°F 100% 30.18 in 7.0 miles Calm Calm - 0.00 in   Overcast
4:55 AM 39.2°F 39.2°F 100% 30.18 in 5.0 miles East 3.5 mph - 0.00 in   Overcast
5:15 AM 39.2°F 39.2°F 100% 30.18 in 5.0 miles East 3.5 mph - 0.00 in   Overcast
5:35 AM 39.2°F 39.2°F 100% 30.19 in 7.0 miles Calm Calm - 0.00 in   Overcast
5:55 AM 39.2°F 39.2°F 100% 30.19 in 8.0 miles Calm Calm - 0.00 in   Overcast
6:35 AM 39.2°F 39.2°F 100% 30.19 in 5.0 miles Calm Calm - 0.01 in   Overcast
6:55 AM 37.4°F 37.4°F 100% 30.19 in 5.0 miles Calm Calm - 0.02 in   Overcast
7:15 AM 37.4°F 37.4°F 100% 30.18 in 6.0 miles Calm Calm - 0.01 in   Overcast
7:35 AM 37.4°F 37.4°F 100% 30.19 in 6.0 miles ESE 3.5 mph - 0.01 in   Overcast
7:55 AM 39.2°F 39.2°F 100% 30.18 in 7.0 miles ESE 4.6 mph - 0.01 in   Overcast
8:15 AM 39.2°F 39.2°F 100% 30.18 in 5.0 miles East 4.6 mph - 0.00 in   Overcast
8:35 AM 39.2°F 39.2°F 100% 30.19 in 6.0 miles East 3.5 mph - 0.03 in   Overcast
8:55 AM 39.2°F 39.2°F 100% 30.20 in 4.0 miles Calm Calm - 0.04 in   Overcast
9:15 AM 39.2°F 39.2°F 100% 30.20 in 2.5 miles Calm Calm - 0.01 in   Overcast
9:55 AM 39.2°F 39.2°F 100% 30.21 in 3.0 miles ESE 3.5 mph - 0.04 in   Overcast
10:15 AM 39.2°F 39.2°F 100% 30.21 in 5.0 miles ESE 3.5 mph - 0.00 in   Overcast
10:35 AM 39.2°F 39.2°F 100% 30.20 in 3.0 miles ESE 4.6 mph - 0.00 in   Overcast
10:55 AM 39.2°F 39.2°F 100% 30.20 in 4.0 miles East 4.6 mph - 0.00 in   Overcast
11:15 AM 39.2°F 39.2°F 100% 30.19 in 3.0 miles East 4.6 mph - 0.00 in   Overcast
11:35 AM 39.2°F 39.2°F 100% 30.19 in 2.0 miles East 3.5 mph - 0.01 in   Overcast
12:15 PM 39.2°F 39.2°F 100% 30.19 in 1.0 miles Calm Calm - 0.00 in   Overcast
12:35 PM 39.2°F 39.2°F 100% 30.18 in 1.2 miles ENE 3.5 mph - 0.01 in   Overcast
12:55 PM 39.2°F 39.2°F 100% 30.18 in 1.8 miles Calm Calm - 0.01 in   Overcast
1:15 PM 39.2°F 39.2°F 100% 30.17 in 1.5 miles East 3.5 mph - 0.00 in   Overcast
1:35 PM 39.2°F 39.2°F 100% 30.17 in 1.5 miles Calm Calm - 0.00 in   Overcast
1:55 PM 39.2°F 39.2°F 100% 30.17 in 3.0 miles SSW 3.5 mph - 0.00 in   Overcast
2:15 PM 39.2°F 39.2°F 100% 30.17 in 6.0 miles Calm Calm - 0.00 in   Overcast
2:35 PM 39.2°F 39.2°F 100% 30.17 in 3.0 miles Calm Calm - 0.01 in   Overcast
2:55 PM 39.2°F 39.2°F 100% 30.17 in 2.5 miles Calm Calm - 0.01 in   Overcast
3:15 PM 39.2°F 39.2°F 100% 30.17 in 5.0 miles Calm Calm - 0.00 in   Overcast
3:35 PM 39.2°F 39.2°F 100% 30.17 in 7.0 miles Calm Calm - 0.00 in   Overcast
3:55 PM 39.2°F 39.2°F 100% 30.17 in 7.0 miles Calm Calm - 0.00 in   Overcast
4:15 PM 39.2°F 39.2°F 100% 30.18 in 6.0 miles Calm Calm - 0.00 in   Overcast
4:35 PM 39.2°F 39.2°F 100% 30.18 in 5.0 miles Calm Calm - 0.00 in   Overcast
4:55 PM 39.2°F 39.2°F 100% 30.18 in 6.0 miles Calm Calm - 0.00 in   Overcast
5:15 PM 39.2°F 39.2°F 100% 30.19 in 7.0 miles Calm Calm - 0.00 in   Overcast
5:35 PM 39.2°F 39.2°F 100% 30.18 in 5.0 miles SW 3.5 mph - 0.00 in   Overcast
5:55 PM 39.2°F 39.2°F 100% 30.18 in 5.0 miles SW 3.5 mph - 0.00 in   Overcast
6:15 PM 39.2°F 39.2°F 100% 30.18 in 5.0 miles Calm Calm - 0.00 in   Overcast
6:35 PM 39.2°F 39.2°F 100% 30.19 in 4.0 miles Calm Calm - 0.00 in   Overcast
6:55 PM 39.2°F 39.2°F 100% 30.19 in 5.0 miles Calm Calm - 0.00 in   Overcast
7:15 PM 39.2°F 39.2°F 100% 30.20 in 3.0 miles Calm Calm - 0.00 in   Overcast
7:35 PM 39.2°F 39.2°F 100% 30.20 in 2.5 miles Calm Calm - 0.00 in   Overcast
7:55 PM 39.2°F 39.2°F 100% 30.20 in 3.0 miles Calm Calm - 0.00 in   Overcast
8:15 PM 39.2°F 39.2°F 100% 30.20 in 4.0 miles NW 3.5 mph - 0.00 in   Overcast
8:35 PM 39.2°F 39.2°F 100% 30.20 in 5.0 miles NW 4.6 mph - 0.00 in   Overcast
8:55 PM 39.2°F 39.2°F 100% 30.21 in 7.0 miles NNW 5.8 mph - 0.00 in   Overcast
9:15 PM 39.2°F 39.2°F 100% 30.22 in 8.0 miles NNW 6.9 mph - 0.00 in   Overcast
9:35 PM 39.2°F 39.2°F 100% 30.22 in 10.0 miles NNW 5.8 mph - 0.00 in   Overcast
10:15 PM 39.2°F 39.2°F 100% 30.23 in 9.0 miles NW 6.9 mph - 0.00 in   Overcast
10:35 PM 39.2°F 39.2°F 100% 30.23 in 10.0 miles Calm Calm - 0.00 in   Overcast
10:55 PM 39.2°F 39.2°F 100% 30.24 in 9.0 miles Calm Calm - 0.00 in   Overcast
11:15 PM 37.4°F 37.4°F 100% 30.24 in 9.0 miles Calm Calm - 0.00 in   Overcast
11:35 PM 37.4°F 37.4°F 100% 30.24 in 6.0 miles Calm Calm - 0.00 in   Overcast
Moon Phase
Dec. 29 Jan. 04 Jan. 11 Jan. 18 Jan. 26
Sunrise:08:01 AM (PST) Moon Rise:06:10 PM (PST)12/29
Sunset:04:22 PM (PST) Moon Set:08:30 AM (PST)12/29

Copyright © 2014 The Weather Underground, Inc.